Time,TemperatureF,DewpointF,PressureIn,WindDirection,WindDirectionDegrees,WindSpeedMPH,WindSpeedGustMPH,Humidity,HourlyPrecipIn,Conditions,Clouds,dailyrainin,SoftwareType,DateUTC
2013-01-11 00:04:00,52.0,-99.9,30.40,NE,46,16.0,18.0,-999,-99.99,,,-99.99,,2013-01-11 05:04:00,
2013-01-11 00:13:00,52.0,-99.9,30.40,NE,40,16.0,18.0,-999,-99.99,,,-99.99,,2013-01-11 05:13:00,
2013-01-11 00:23:00,52.0,-99.9,30.40,NE,39,16.0,17.0,-999,-99.99,,,-99.99,,2013-01-11 05:23:00,
2013-01-11 00:33:00,52.0,-99.9,30.40,NE,40,17.0,18.0,-999,-99.99,,,-99.99,,2013-01-11 05:33:00,
2013-01-11 00:43:00,52.0,-99.9,30.39,NE,39,18.0,20.0,-999,-99.99,,,-99.99,,2013-01-11 05:43:00,
2013-01-11 00:53:00,51.0,-99.9,30.39,NE,39,17.0,18.0,-999,-99.99,,,-99.99,,2013-01-11 05:53:00,
2013-01-11 01:03:00,51.0,-99.9,30.38,NE,39,18.0,20.0,-999,-99.99,,,-99.99,,2013-01-11 06:03:00,
2013-01-11 01:12:00,51.0,-99.9,30.39,NE,35,18.0,20.0,-999,-99.99,,,-99.99,,2013-01-11 06:12:00,
2013-01-11 01:22:00,51.0,-99.9,30.38,NE,37,18.0,20.0,-999,-99.99,,,-99.99,,2013-01-11 06:22:00,
2013-01-11 01:33:00,51.0,-99.9,30.38,NE,35,19.0,21.0,-999,-99.99,,,-99.99,,2013-01-11 06:33:00,
2013-01-11 01:42:00,51.0,-99.9,30.38,NE,39,18.0,19.0,-999,-99.99,,,-99.99,,2013-01-11 06:42:00,
2013-01-11 01:52:00,51.0,-99.9,30.38,NE,39,18.0,20.0,-999,-99.99,,,-99.99,,2013-01-11 06:52:00,
2013-01-11 02:02:00,51.0,-99.9,30.37,NE,39,17.0,20.0,-999,-99.99,,,-99.99,,2013-01-11 07:02:00,
2013-01-11 02:12:00,51.0,-99.9,30.37,NE,39,18.0,20.0,-999,-99.99,,,-99.99,,2013-01-11 07:12:00,
2013-01-11 02:22:00,51.0,-99.9,30.36,NE,45,17.0,19.0,-999,-99.99,,,-99.99,,2013-01-11 07:22:00,
2013-01-11 02:32:00,51.0,-99.9,30.36,NE,42,17.0,20.0,-999,-99.99,,,-99.99,,2013-01-11 07:32:00,
2013-01-11 02:42:00,51.0,-99.9,30.35,NE,43,17.0,20.0,-999,-99.99,,,-99.99,,2013-01-11 07:42:00,
2013-01-11 02:53:00,51.0,-99.9,30.35,NE,46,15.0,17.0,-999,-99.99,,,-99.99,,2013-01-11 07:53:00,
2013-01-11 03:02:00,51.0,-99.9,30.35,NE,45,16.0,17.0,-999,-99.99,,,-99.99,,2013-01-11 08:02:00,
2013-01-11 03:12:00,51.0,-99.9,30.34,NE,44,16.0,18.0,-999,-99.99,,,-99.99,,2013-01-11 08:12:00,
2013-01-11 03:22:00,52.0,-99.9,30.34,NE,41,15.0,16.0,-999,-99.99,,,-99.99,,2013-01-11 08:22:00,
2013-01-11 03:32:00,52.0,-99.9,30.34,NE,43,14.0,15.0,-999,-99.99,,,-99.99,,2013-01-11 08:32:00,
2013-01-11 03:42:00,52.0,-99.9,30.33,NE,44,14.0,15.0,-999,-99.99,,,-99.99,,2013-01-11 08:42:00,
2013-01-11 03:53:00,52.0,-99.9,30.33,NE,46,16.0,18.0,-999,-99.99,,,-99.99,,2013-01-11 08:53:00,
2013-01-11 04:03:00,52.0,-99.9,30.32,NE,45,15.0,17.0,-999,-99.99,,,-99.99,,2013-01-11 09:03:00,
2013-01-11 04:12:00,52.0,-99.9,30.32,NE,43,16.0,18.0,-999,-99.99,,,-99.99,,2013-01-11 09:12:00,
2013-01-11 04:23:00,52.0,-99.9,30.32,NE,44,16.0,18.0,-999,-99.99,,,-99.99,,2013-01-11 09:23:00,
2013-01-11 04:32:00,52.0,-99.9,30.32,NE,38,15.0,17.0,-999,-99.99,,,-99.99,,2013-01-11 09:32:00,
2013-01-11 04:43:00,52.0,-99.9,30.32,NE,35,15.0,17.0,-999,-99.99,,,-99.99,,2013-01-11 09:43:00,
2013-01-11 04:53:00,52.0,-99.9,30.32,NE,36,14.0,16.0,-999,-99.99,,,-99.99,,2013-01-11 09:53:00,
2013-01-11 05:02:00,52.0,-99.9,30.31,NE,39,15.0,17.0,-999,-99.99,,,-99.99,,2013-01-11 10:02:00,
2013-01-11 05:12:00,52.0,-99.9,30.31,NE,40,17.0,19.0,-999,-99.99,,,-99.99,,2013-01-11 10:12:00,
2013-01-11 05:22:00,52.0,-99.9,30.31,NE,44,17.0,18.0,-999,-99.99,,,-99.99,,2013-01-11 10:22:00,
2013-01-11 05:32:00,52.0,-99.9,30.30,NE,40,15.0,18.0,-999,-99.99,,,-99.99,,2013-01-11 10:32:00,
2013-01-11 05:43:00,52.0,-99.9,30.30,NE,39,14.0,16.0,-999,-99.99,,,-99.99,,2013-01-11 10:43:00,
2013-01-11 05:53:00,52.0,-99.9,30.30,NE,39,14.0,16.0,-999,-99.99,,,-99.99,,2013-01-11 10:53:00,
2013-01-11 06:03:00,52.0,-99.9,30.30,NE,39,16.0,17.0,-999,-99.99,,,-99.99,,2013-01-11 11:03:00,
2013-01-11 06:12:00,53.0,-99.9,30.30,NE,41,15.0,16.0,-999,-99.99,,,-99.99,,2013-01-11 11:12:00,
2013-01-11 06:23:00,53.0,-99.9,30.29,NE,42,14.0,15.0,-999,-99.99,,,-99.99,,2013-01-11 11:23:00,
2013-01-11 06:33:00,53.0,-99.9,30.29,NE,45,14.0,16.0,-999,-99.99,,,-99.99,,2013-01-11 11:33:00,
2013-01-11 06:43:00,53.0,-99.9,30.29,NE,45,14.0,16.0,-999,-99.99,,,-99.99,,2013-01-11 11:43:00,
2013-01-11 06:53:00,53.0,-99.9,30.29,NE,44,14.0,15.0,-999,-99.99,,,-99.99,,2013-01-11 11:53:00,
2013-01-11 07:03:00,53.0,-99.9,30.29,NE,40,13.0,14.0,-999,-99.99,,,-99.99,,2013-01-11 12:03:00,
2013-01-11 07:12:00,53.0,-99.9,30.29,NE,38,11.0,12.0,-999,-99.99,,,-99.99,,2013-01-11 12:12:00,
2013-01-11 07:23:00,53.0,-99.9,30.30,NNE,25,11.0,13.0,-999,-99.99,,,-99.99,,2013-01-11 12:23:00,
2013-01-11 07:33:00,53.0,-99.9,30.30,NNE,32,11.0,12.0,-999,-99.99,,,-99.99,,2013-01-11 12:33:00,
2013-01-11 07:43:00,53.0,-99.9,30.30,NNE,32,11.0,12.0,-999,-99.99,,,-99.99,,2013-01-11 12:43:00,
2013-01-11 07:53:00,53.0,-99.9,30.30,NNE,26,10.0,12.0,-999,-99.99,,,-99.99,,2013-01-11 12:53:00,
2013-01-11 08:03:00,53.0,-99.9,30.30,NNE,30,10.0,12.0,-999,-99.99,,,-99.99,,2013-01-11 13:03:00,
2013-01-11 08:13:00,53.0,-99.9,30.30,NE,36,11.0,12.0,-999,-99.99,,,-99.99,,2013-01-11 13:13:00,
2013-01-11 08:23:00,53.0,-99.9,30.30,NE,38,11.0,12.0,-999,-99.99,,,-99.99,,2013-01-11 13:23:00,
2013-01-11 08:33:00,53.0,-99.9,30.29,NE,38,13.0,14.0,-999,-99.99,,,-99.99,,2013-01-11 13:33:00,
2013-01-11 08:43:00,53.0,-99.9,30.30,NNE,31,10.0,12.0,-999,-99.99,,,-99.99,,2013-01-11 13:43:00,
2013-01-11 08:53:00,53.0,-99.9,30.30,NE,36,11.0,12.0,-999,-99.99,,,-99.99,,2013-01-11 13:53:00,
2013-01-11 09:03:00,54.0,-99.9,30.30,NE,37,10.0,11.0,-999,-99.99,,,-99.99,,2013-01-11 14:03:00,
2013-01-11 09:12:00,54.0,-99.9,30.30,NNE,21,7.0,7.0,-999,-99.99,,,-99.99,,2013-01-11 14:12:00,
2013-01-11 09:23:00,54.0,-99.9,30.30,NNE,15,7.0,8.0,-999,-99.99,,,-99.99,,2013-01-11 14:23:00,
2013-01-11 09:33:00,55.0,-99.9,30.30,NNE,15,8.0,9.0,-999,-99.99,,,-99.99,,2013-01-11 14:33:00,
2013-01-11 09:43:00,56.0,-99.9,30.30,North,7,6.0,7.0,-999,-99.99,,,-99.99,,2013-01-11 14:43:00,
2013-01-11 09:53:00,57.0,-99.9,30.30,NNE,21,7.0,7.0,-999,-99.99,,,-99.99,,2013-01-11 14:53:00,
2013-01-11 10:03:00,57.0,-99.9,30.30,NE,34,8.0,9.0,-999,-99.99,,,-99.99,,2013-01-11 15:03:00,
2013-01-11 10:13:00,58.0,-99.9,30.30,NNE,27,6.0,6.0,-999,-99.99,,,-99.99,,2013-01-11 15:13:00,
2013-01-11 10:23:00,58.0,-99.9,30.30,NNE,15,5.0,6.0,-999,-99.99,,,-99.99,,2013-01-11 15:23:00,
2013-01-11 10:33:00,59.0,-99.9,30.29,NNE,15,3.0,3.0,-999,-99.99,,,-99.99,,2013-01-11 15:33:00,
2013-01-11 10:43:00,59.0,-99.9,30.29,NNE,24,4.0,5.0,-999,-99.99,,,-99.99,,2013-01-11 15:43:00,
2013-01-11 10:53:00,59.0,-99.9,30.29,NE,35,4.0,4.0,-999,-99.99,,,-99.99,,2013-01-11 15:53:00,
2013-01-11 11:03:00,59.0,-99.9,30.28,NE,35,3.0,3.0,-999,-99.99,,,-99.99,,2013-01-11 16:03:00,
2013-01-11 11:13:00,60.0,-99.9,30.28,WNW,292,1.0,2.0,-999,-99.99,,,-99.99,,2013-01-11 16:13:00,
2013-01-11 11:23:00,61.0,-99.9,30.28,West,269,3.0,4.0,-999,-99.99,,,-99.99,,2013-01-11 16:23:00,
2013-01-11 11:33:00,62.0,-99.9,30.27,SSE,164,-999.0,0.0,-999,-99.99,,,-99.99,,2013-01-11 16:33:00,
2013-01-11 11:43:00,62.0,-99.9,30.26,North,-999,-999.0,-999.0,-999,-99.99,,,-99.99,,2013-01-11 16:43:00,
2013-01-11 11:53:00,63.0,-99.9,30.26,West,280,1.0,2.0,-999,-99.99,,,-99.99,,2013-01-11 16:53:00,
2013-01-11 12:03:00,62.0,-99.9,30.25,North,-999,-999.0,-999.0,-999,-99.99,,,-99.99,,2013-01-11 17:03:00,
2013-01-11 12:12:00,63.0,-99.9,30.24,West,273,4.0,6.0,-999,-99.99,,,-99.99,,2013-01-11 17:12:00,
2013-01-11 12:23:00,64.0,-99.9,30.24,West,268,4.0,5.0,-999,-99.99,,,-99.99,,2013-01-11 17:23:00,
2013-01-11 12:33:00,64.0,-99.9,30.23,SW,230,8.0,12.0,-999,-99.99,,,-99.99,,2013-01-11 17:33:00,
2013-01-11 12:43:00,64.0,-99.9,30.23,SSW,206,6.0,8.0,-999,-99.99,,,-99.99,,2013-01-11 17:43:00,
2013-01-11 12:53:00,64.0,-99.9,30.23,SSW,206,4.0,4.0,-999,-99.99,,,-99.99,,2013-01-11 17:53:00,
2013-01-11 13:04:00,64.0,-99.9,30.22,SSW,211,4.0,4.0,-999,-99.99,,,-99.99,,2013-01-11 18:04:00,
2013-01-11 13:13:00,65.0,-99.9,30.22,SSW,202,3.0,4.0,-999,-99.99,,,-99.99,,2013-01-11 18:13:00,
2013-01-11 13:24:00,65.0,-99.9,30.22,South,185,4.0,4.0,-999,-99.99,,,-99.99,,2013-01-11 18:24:00,
2013-01-11 13:33:00,65.0,-99.9,30.21,SSW,197,4.0,5.0,-999,-99.99,,,-99.99,,2013-01-11 18:33:00,
2013-01-11 13:43:00,65.0,-99.9,30.21,South,191,5.0,6.0,-999,-99.99,,,-99.99,,2013-01-11 18:43:00,
2013-01-11 13:53:00,64.0,-99.9,30.20,South,169,3.0,4.0,-999,-99.99,,,-99.99,,2013-01-11 18:53:00,
2013-01-11 14:03:00,63.0,-99.9,30.21,SSW,192,11.0,12.0,-999,-99.99,,,-99.99,,2013-01-11 19:03:00,
2013-01-11 14:13:00,63.0,-99.9,30.20,SSW,197,8.0,9.0,-999,-99.99,,,-99.99,,2013-01-11 19:13:00,
2013-01-11 14:23:00,62.0,-99.9,30.20,SSW,209,7.0,7.0,-999,-99.99,,,-99.99,,2013-01-11 19:23:00,
2013-01-11 14:33:00,64.0,-99.9,30.20,SSW,213,7.0,7.0,-999,-99.99,,,-99.99,,2013-01-11 19:33:00,
2013-01-11 14:43:00,63.0,-99.9,30.19,SSW,196,4.0,5.0,-999,-99.99,,,-99.99,,2013-01-11 19:43:00,
2013-01-11 14:54:00,63.0,-99.9,30.19,SSW,202,2.0,3.0,-999,-99.99,,,-99.99,,2013-01-11 19:54:00,
2013-01-11 15:03:00,64.0,-99.9,30.19,SSW,213,4.0,5.0,-999,-99.99,,,-99.99,,2013-01-11 20:03:00,
2013-01-11 15:13:00,63.0,-99.9,30.19,SSW,204,4.0,5.0,-999,-99.99,,,-99.99,,2013-01-11 20:13:00,
2013-01-11 15:23:00,63.0,-99.9,30.19,SSW,212,3.0,4.0,-999,-99.99,,,-99.99,,2013-01-11 20:23:00,
2013-01-11 15:33:00,63.0,-99.9,30.19,SSW,194,5.0,5.0,-999,-99.99,,,-99.99,,2013-01-11 20:33:00,
2013-01-11 15:43:00,63.0,-99.9,30.18,SSW,199,7.0,8.0,-999,-99.99,,,-99.99,,2013-01-11 20:43:00,
2013-01-11 15:53:00,63.0,-99.9,30.18,SSW,193,7.0,10.0,-999,-99.99,,,-99.99,,2013-01-11 20:53:00,
2013-01-11 16:03:00,62.0,-99.9,30.18,SSW,200,12.0,16.0,-999,-99.99,,,-99.99,,2013-01-11 21:03:00,
2013-01-11 16:13:00,62.0,-99.9,30.17,South,181,12.0,13.0,-999,-99.99,,,-99.99,,2013-01-11 21:13:00,
2013-01-11 16:23:00,60.0,-99.9,30.18,South,187,6.0,7.0,-999,-99.99,,,-99.99,,2013-01-11 21:23:00,
2013-01-11 16:33:00,60.0,-99.9,30.17,SSW,201,7.0,9.0,-999,-99.99,,,-99.99,,2013-01-11 21:33:00,
2013-01-11 16:43:00,60.0,-99.9,30.17,SSW,203,11.0,11.0,-999,-99.99,,,-99.99,,2013-01-11 21:43:00,
2013-01-11 16:53:00,60.0,-99.9,30.17,SSW,202,11.0,13.0,-999,-99.99,,,-99.99,,2013-01-11 21:53:00,
2013-01-11 17:03:00,60.0,-99.9,30.17,SSW,204,11.0,11.0,-999,-99.99,,,-99.99,,2013-01-11 22:03:00,
2013-01-11 17:13:00,59.0,-99.9,30.16,SSW,197,9.0,10.0,-999,-99.99,,,-99.99,,2013-01-11 22:13:00,
2013-01-11 17:23:00,59.0,-99.9,30.16,SSW,200,9.0,10.0,-999,-99.99,,,-99.99,,2013-01-11 22:23:00,
2013-01-11 17:33:00,60.0,-99.9,30.17,SSW,205,10.0,11.0,-999,-99.99,,,-99.99,,2013-01-11 22:33:00,
2013-01-11 17:43:00,60.0,-99.9,30.17,SW,215,9.0,10.0,-999,-99.99,,,-99.99,,2013-01-11 22:43:00,
2013-01-11 17:53:00,60.0,-99.9,30.17,SSW,209,10.0,11.0,-999,-99.99,,,-99.99,,2013-01-11 22:53:00,
2013-01-11 18:03:00,59.0,-99.9,30.17,SSW,205,10.0,11.0,-999,-99.99,,,-99.99,,2013-01-11 23:03:00,
2013-01-11 18:13:00,59.0,-99.9,30.17,SSW,207,10.0,10.0,-999,-99.99,,,-99.99,,2013-01-11 23:13:00,
2013-01-11 18:23:00,58.0,-99.9,30.17,SSW,206,8.0,8.0,-999,-99.99,,,-99.99,,2013-01-11 23:23:00,
2013-01-11 18:33:00,58.0,-99.9,30.17,SSW,204,9.0,10.0,-999,-99.99,,,-99.99,,2013-01-11 23:33:00,
2013-01-11 18:43:00,59.0,-99.9,30.18,SW,214,9.0,10.0,-999,-99.99,,,-99.99,,2013-01-11 23:43:00,
2013-01-11 18:54:00,60.0,-99.9,30.18,SSW,213,10.0,10.0,-999,-99.99,,,-99.99,,2013-01-11 23:54:00,
2013-01-11 19:03:00,59.0,-99.9,30.17,SW,217,9.0,9.0,-999,-99.99,,,-99.99,,2013-01-12 00:03:00,
2013-01-11 19:13:00,58.0,-99.9,30.17,SSW,210,8.0,8.0,-999,-99.99,,,-99.99,,2013-01-12 00:13:00,
2013-01-11 19:23:00,57.0,-99.9,30.17,SSW,213,8.0,9.0,-999,-99.99,,,-99.99,,2013-01-12 00:23:00,
2013-01-11 19:33:00,59.0,-99.9,30.18,SW,222,7.0,7.0,-999,-99.99,,,-99.99,,2013-01-12 00:33:00,
2013-01-11 19:43:00,59.0,-99.9,30.18,SW,222,6.0,6.0,-999,-99.99,,,-99.99,,2013-01-12 00:43:00,
2013-01-11 19:53:00,58.0,-99.9,30.17,SSW,212,7.0,8.0,-999,-99.99,,,-99.99,,2013-01-12 00:53:00,
2013-01-11 20:03:00,58.0,-99.9,30.17,SW,217,8.0,8.0,-999,-99.99,,,-99.99,,2013-01-12 01:03:00,
2013-01-11 20:13:00,58.0,-99.9,30.17,SSW,212,8.0,8.0,-999,-99.99,,,-99.99,,2013-01-12 01:13:00,
2013-01-11 20:23:00,60.0,-99.9,30.17,SW,215,8.0,8.0,-999,-99.99,,,-99.99,,2013-01-12 01:23:00,
2013-01-11 20:33:00,60.0,-99.9,30.16,SW,222,7.0,8.0,-999,-99.99,,,-99.99,,2013-01-12 01:33:00,
2013-01-11 20:43:00,60.0,-99.9,30.17,SW,227,6.0,7.0,-999,-99.99,,,-99.99,,2013-01-12 01:43:00,
2013-01-11 20:53:00,60.0,-99.9,30.17,SW,230,6.0,7.0,-999,-99.99,,,-99.99,,2013-01-12 01:53:00,
2013-01-11 21:03:00,60.0,-99.9,30.16,SW,221,7.0,7.0,-999,-99.99,,,-99.99,,2013-01-12 02:03:00,
2013-01-11 21:12:00,59.0,-99.9,30.17,SW,221,5.0,5.0,-999,-99.99,,,-99.99,,2013-01-12 02:12:00,
2013-01-11 21:22:00,59.0,-99.9,30.17,SW,226,4.0,4.0,-999,-99.99,,,-99.99,,2013-01-12 02:22:00,
2013-01-11 21:33:00,59.0,-99.9,30.16,SSW,209,4.0,4.0,-999,-99.99,,,-99.99,,2013-01-12 02:33:00,
2013-01-11 21:43:00,59.0,-99.9,30.15,SSW,200,6.0,8.0,-999,-99.99,,,-99.99,,2013-01-12 02:43:00,
2013-01-11 21:53:00,59.0,-99.9,30.15,SSW,200,8.0,8.0,-999,-99.99,,,-99.99,,2013-01-12 02:53:00,
2013-01-11 22:03:00,57.0,-99.9,30.16,SSW,203,7.0,8.0,-999,-99.99,,,-99.99,,2013-01-12 03:03:00,
2013-01-11 22:12:00,57.0,-99.9,30.16,SSW,205,7.0,8.0,-999,-99.99,,,-99.99,,2013-01-12 03:12:00,
2013-01-11 22:22:00,57.0,-99.9,30.16,SSW,208,8.0,8.0,-999,-99.99,,,-99.99,,2013-01-12 03:22:00,
2013-01-11 22:33:00,58.0,-99.9,30.16,SSW,211,9.0,9.0,-999,-99.99,,,-99.99,,2013-01-12 03:33:00,
2013-01-11 22:43:00,59.0,-99.9,30.16,SW,232,7.0,8.0,-999,-99.99,,,-99.99,,2013-01-12 03:43:00,
2013-01-11 22:53:00,60.0,-99.9,30.16,SW,233,7.0,8.0,-999,-99.99,,,-99.99,,2013-01-12 03:53:00,
2013-01-11 23:03:00,61.0,-99.9,30.16,WSW,252,7.0,8.0,-999,-99.99,,,-99.99,,2013-01-12 04:03:00,
2013-01-11 23:12:00,63.0,-99.9,30.17,WSW,244,7.0,8.0,-999,-99.99,,,-99.99,,2013-01-12 04:12:00,
2013-01-11 23:22:00,63.0,-99.9,30.16,SW,235,8.0,9.0,-999,-99.99,,,-99.99,,2013-01-12 04:22:00,
2013-01-11 23:33:00,63.0,-99.9,30.16,WSW,241,8.0,9.0,-999,-99.99,,,-99.99,,2013-01-12 04:33:00,
2013-01-11 23:43:00,63.0,-99.9,30.16,WSW,237,9.0,10.0,-999,-99.99,,,-99.99,,2013-01-12 04:43:00,
2013-01-11 23:53:00,63.0,-99.9,30.16,WSW,237,9.0,11.0,-999,-99.99,,,-99.99,,2013-01-12 04:53:00,